Theta_e
310 309 308 308 311 316 317 317 315 314 312 311 310 307 304 302 302 302 304 307 309 312 313 314 315 322 323 319 326 327 327 327 329 327 328 324 323 324 326 326 326 326 325 327 328
308 310 309 308 309 313 316 316 316 315 314 312 311 310 309 305 303 302 302 302 303 306 310 312 313 316 323 321 328 325 325 327 325 324 326 326 324 324 324 326 326 327 327 327 327
306 307 309 310 308 309 314 315 315 316 316 314 312 311 310 309 305 303 302 302 302 302 305 312 313 316 322 322 325 323 324 322 325 326 326 327 326 324 323 323 326 327 327 327 327
304 305 307 309 309 307 309 314 313 314 315 316 313 312 311 310 302 307 310 306 302 302 303 309 314 319 322 320 324 325 324 325 326 327 326 326 327 326 324 325 326 325 326 326 326
303 304 306 307 309 309 308 310 313 310 311 313 315 312 311 311 309 309 312 313 307 301 302 309 318 320 321 321 322 325 323 325 326 326 326 326 326 326 326 328 325 325 326 327 328
302 301 302 304 307 308 309 310 311 311 308 309 314 313 311 310 311 309 306 310 312 303 302 314 316 318 320 320 319 319 324 324 325 326 326 324 324 324 325 326 327 328 327 327 328
300 301 303 302 304 307 308 310 311 310 309 308 311 314 312 312 312 305 306 306 311 308 303 312 316 319 321 322 322 321 320 319 320 322 322 322 321 321 322 323 324 324 326 328 327
298 299 300 301 301 304 306 308 310 310 310 307 309 315 312 313 313 312 310 304 306 310 308 313 318 320 322 321 320 321 321 321 317 319 322 322 319 317 319 322 322 322 320 321 322
299 299 298 300 301 302 304 306 309 310 310 308 310 314 314 312 312 312 312 310 306 313 311 316 318 319 321 317 318 317 311 318 317 317 318 319 319 317 318 319 320 319 320 321 321
298 298 298 299 300 301 302 305 307 310 310 309 310 313 312 312 313 312 312 310 314 316 313 316 315 315 315 317 312 314 318 315 314 315 316 318 320 317 317 319 319 319 319 319 319
298 297 297 298 298 301 301 304 307 309 310 309 309 312 311 312 312 312 312 311 316 316 314 316 313 313 314 316 310 309 314 314 313 314 317 316 317 317 317 317 317 318 318 318 318
298 297 298 297 298 300 301 303 307 308 309 309 309 310 311 312 311 311 311 310 312 314 312 314 314 310 310 312 314 313 313 313 314 314 315 314 315 314 313 314 316 317 317 317 316
297 296 297 297 299 300 300 302 306 308 308 308 308 309 311 311 311 311 310 311 313 313 313 311 310 311 311 313 316 316 315 313 312 313 312 313 311 313 311 313 313 314 314 314 313
298 298 297 297 298 299 300 301 302 304 307 309 309 308 311 311 310 311 309 312 313 313 313 312 309 310 312 313 314 315 314 312 314 313 311 310 307 307 307 309 311 313 314 315 316
297 298 298 298 298 299 299 300 301 303 308 307 308 309 309 309 309 310 309 312 312 311 312 311 309 310 311 312 313 312 314 314 313 314 315 313 314 310 312 312 312 312 315 315 316
297 298 297 297 298 298 299 299 302 305 308 309 309 310 309 309 309 308 308 310 312 310 311 309 310 307 308 309 313 310 312 313 313 315 315 311 313 309 310 312 312 314 315 315 315
298 297 297 297 297 298 300 301 304 305 305 307 310 310 309 310 310 309 309 309 312 312 313 310 310 310 310 311 311 312 311 309 314 316 313 309 312 311 308 309 309 311 314 313 315
297 297 297 297 298 299 300 302 304 301 306 306 309 309 309 309 310 309 309 309 311 309 308 311 311 310 309 310 312 314 313 309 308 309 311 308 313 311 309 310 311 311 312 312 314
297 297 298 297 297 298 299 302 303 298 303 308 308 309 310 309 309 309 309 310 311 308 310 311 311 307 309 311 311 313 315 309 311 307 309 309 309 311 310 310 312 313 311 312 309
297 298 298 298 298 298 297 301 302 303 305 304 308 309 309 310 310 310 309 309 310 309 305 307 309 307 309 312 311 311 311 314 313 310 309 311 311 312 311 310 308 309 310 310 306
297 298 297 298 298 297 298 299 299 299 301 307 304 307 309 310 309 310 310 307 308 309 307 303 305 307 309 312 313 313 313 312 311 311 310 309 308 307 310 309 309 307 310 306 304
297 295 297 298 297 297 298 299 300 301 300 301 303 306 307 308 310 309 308 308 308 309 310 304 304 308 310 306 308 312 312 312 313 313 312 311 310 306 306 307 308 307 305 304 303
296 296 298 298 298 298 297 299 298 299 299 302 304 306 306 308 310 309 307 306 307 308 310 307 308 309 310 309 308 309 310 311 310 306 312 314 312 306 306 305 307 304 303 302 302
296 293 296 298 297 294 297 296 299 299 300 300 301 301 306 308 308 310 309 305 306 308 310 308 307 309 309 308 307 311 310 310 311 313 312 311 310 306 305 305 303 302 301 300 300
295 291 295 289 297 285 294 295 299 300 299 301 301 301 305 306 308 308 307 306 306 308 309 308 310 309 307 304 306 308 310 309 311 311 311 310 308 309 304 303 302 302 299 299 298
296 295 294 291 294 295 294 295 299 299 298 300 300 301 301 302 304 308 305 306 307 306 308 308 310 308 308 305 305 307 307 309 310 310 310 309 307 307 304 304 301 299 298 297 296
296 296 297 294 285 292 295 294 296 297 298 299 299 301 301 301 301 302 302 302 304 306 306 308 309 309 309 306 306 308 308 307 309 309 310 311 310 303 300 303 299 298 297 295 293
Wind_Speed
18 20 21 24 25 20 19 18 15 13 11 10 11 12 14 17 21 22 24 24 17 15 14 14 12 5 5 1 1 2 3 2 3 5 2 4 3 3 3 3 4 5 2 1 0
24 18 19 23 24 24 20 18 18 15 13 11 9 10 12 14 15 20 21 20 18 17 15 12 8 5 1 2 1 3 3 7 3 3 3 2 3 5 3 3 4 6 6 5 3
26 23 22 19 22 25 22 20 16 15 16 12 11 9 9 10 12 6 11 17 20 20 16 12 6 4 4 4 6 5 5 4 3 6 3 3 2 3 4 2 7 6 7 7 6
24 25 26 23 20 23 25 21 20 18 14 14 12 10 8 4 5 1 2 7 18 23 21 14 8 6 5 4 6 4 7 7 3 6 3 2 2 3 8 6 4 9 7 6 7
25 24 24 26 22 21 23 24 22 20 18 15 14 13 11 6 11 2 1 6 5 16 23 17 14 9 6 5 6 4 6 12 9 6 4 4 6 6 8 11 10 8 10 9 9
28 26 26 28 25 22 23 23 24 21 21 18 16 18 17 7 10 16 10 3 3 7 21 18 9 11 5 5 8 3 8 4 6 10 7 5 9 6 6 17 18 16 16 16 15
23 26 22 25 30 23 22 23 23 21 21 21 19 22 25 25 8 5 12 14 3 3 18 20 9 11 6 2 8 3 3 1 5 6 5 2 10 8 24 21 19 18 17 18 18
22 23 23 21 24 27 22 23 21 23 21 21 21 24 17 24 26 20 10 8 8 5 14 17 16 8 5 2 2 4 3 3 3 11 7 9 16 5 6 21 26 25 27 26 25
23 23 25 23 21 24 22 21 21 21 21 19 21 25 9 15 29 23 15 15 12 6 14 12 11 5 6 5 2 2 3 5 4 13 4 7 10 4 9 20 23 22 23 22 21
24 23 25 22 21 20 20 18 18 19 21 19 23 13 14 13 22 26 22 11 8 11 11 8 7 4 4 6 8 6 4 4 6 3 3 5 19 4 5 10 14 15 19 22 23
24 23 23 23 23 20 18 17 14 11 27 17 11 16 14 15 18 18 22 21 15 16 6 14 4 14 12 13 3 6 5 5 3 3 4 9 15 16 19 20 25 31 32 33 36
24 24 24 27 23 21 20 23 13 4 9 35 24 27 19 18 11 18 24 21 13 10 8 5 20 5 7 6 8 3 3 4 4 5 6 6 13 15 12 16 30 33 35 35 32
32 31 28 26 23 23 27 33 23 5 5 13 43 26 16 27 18 28 32 21 17 13 22 10 2 19 11 9 12 11 14 4 3 2 2 4 13 10 9 27 26 32 36 36 35
29 33 32 25 25 28 32 29 27 31 4 8 16 24 21 17 8 18 32 23 8 17 19 11 7 9 2 14 14 13 8 6 3 4 4 2 10 5 3 4 6 15 19 21 18
24 29 32 30 26 25 31 27 24 20 10 11 12 17 33 13 16 22 35 24 14 10 9 8 10 13 10 7 13 5 8 13 6 5 3 4 4 4 1 4 4 8 13 14 14
17 21 28 30 29 31 22 27 23 10 10 8 17 18 24 22 12 16 25 17 7 4 8 6 5 11 12 7 17 7 6 5 3 4 8 9 10 15 7 7 5 6 11 9 11
15 19 28 29 34 32 22 26 9 14 6 8 14 20 29 21 25 14 12 15 9 8 12 4 8 2 8 7 4 8 8 3 5 5 10 9 7 24 3 1 7 9 8 9 4
15 17 24 26 29 26 29 9 16 17 6 2 10 21 28 22 16 13 23 19 21 5 7 13 7 12 5 8 7 16 13 6 8 6 4 5 11 11 6 24 26 23 26 15 11
9 15 21 25 27 23 20 10 6 5 12 8 10 17 18 22 10 15 18 29 24 18 9 13 10 2 6 7 15 9 17 7 3 2 2 5 7 8 8 7 9 11 10 17 18
7 11 19 21 24 23 6 9 5 3 0 15 14 16 18 24 15 21 18 20 20 23 1 6 2 4 7 7 14 8 11 9 9 6 7 5 5 9 2 8 7 8 13 19 22
8 4 7 18 22 10 4 4 1 1 2 5 19 12 17 14 20 18 14 10 23 26 16 8 4 0 11 16 18 7 9 8 5 7 7 6 8 7 11 12 8 11 22 28 26
7 1 10 21 4 3 2 4 4 5 2 3 5 21 12 12 21 19 15 20 45 33 24 11 5 5 15 3 12 20 17 15 7 9 10 2 6 1 5 6 12 15 25 27 26
7 4 14 24 3 2 1 4 2 3 5 1 5 10 4 17 13 18 12 21 36 26 22 15 6 4 3 0 1 14 12 13 6 2 9 10 12 3 4 5 17 27 26 28 28
8 2 5 14 6 6 5 2 2 5 1 5 6 7 9 9 8 13 14 2 22 33 27 27 7 17 15 13 8 10 20 19 19 13 18 14 18 6 5 9 13 23 27 28 28
12 6 8 4 6 2 4 5 8 5 2 6 3 6 6 4 5 7 7 4 9 31 20 11 12 17 20 3 5 9 19 25 21 25 18 25 15 22 9 10 20 29 28 27 23
11 6 5 3 8 10 7 7 11 9 9 6 10 6 6 4 7 8 4 5 5 11 20 7 4 10 16 10 7 4 12 16 25 29 21 14 7 17 10 21 22 28 29 27 22
22 15 8 4 3 5 8 9 8 5 9 7 7 3 6 10 12 16 7 9 6 13 14 10 8 7 17 17 13 9 18 20 18 23 25 19 30 6 5 18 25 28 29 28 21
Wind_Direction
258 258 254 251 243 244 244 245 249 262 268 276 278 278 274 268 264 263 259 258 264 258 257 262 269 288 327 309 29 31 66 152 212 159 235 162 178 196 192 171 180 201 251 251 317
256 259 255 254 248 238 242 243 244 247 255 262 275 281 281 282 280 270 270 265 260 260 258 262 264 250 233 168 151 99 115 209 210 191 180 191 200 181 178 174 217 229 237 267 258
258 254 250 252 251 243 237 238 237 243 246 250 262 270 278 289 301 264 261 252 244 232 236 237 238 217 200 183 188 164 176 205 224 235 186 186 211 190 164 228 223 233 240 239 252
257 256 248 247 247 245 238 238 239 240 247 249 248 257 265 271 229 188 244 264 238 219 214 214 202 181 171 189 191 152 218 187 208 194 202 215 195 216 212 224 234 229 219 239 250
258 249 253 250 246 244 237 235 236 240 242 247 245 239 234 228 235 223 309 349 299 218 202 195 185 178 174 196 176 191 202 215 211 223 218 228 246 244 241 235 236 224 235 253 259
255 258 253 251 250 248 239 233 237 237 239 240 243 228 224 214 253 239 223 310 338 203 198 187 202 193 186 202 183 223 203 221 225 232 238 214 253 225 242 238 247 246 248 256 264
262 251 252 258 246 248 244 237 232 235 233 234 236 230 227 229 242 249 238 227 276 238 202 189 190 179 184 160 234 171 155 30 243 230 246 180 280 215 246 242 244 250 254 255 258
257 262 258 262 257 248 246 241 238 231 230 228 226 234 235 243 245 238 252 213 220 213 194 196 197 200 183 159 65 143 128 152 245 187 232 153 257 151 256 234 249 250 254 254 257
253 256 255 256 259 251 244 240 238 233 226 220 221 222 246 222 230 236 239 230 207 204 183 192 195 195 175 117 48 335 193 188 285 212 153 187 268 247 223 227 241 248 252 256 258
248 251 254 248 253 249 242 244 234 233 222 219 222 220 216 189 211 235 223 191 178 178 167 185 185 176 167 167 209 187 211 219 195 213 210 214 254 237 162 193 222 242 259 267 266
244 246 253 245 245 246 230 232 232 227 219 199 207 206 157 166 182 198 211 197 181 178 171 180 177 212 190 200 149 167 177 186 213 229 185 232 248 251 248 256 256 258 260 262 267
254 245 247 248 239 235 225 213 216 168 216 220 219 222 221 183 166 188 184 165 180 191 145 184 230 170 175 194 208 174 180 220 270 230 188 253 255 264 224 238 246 252 257 261 266
255 245 235 242 238 228 229 224 210 197 241 209 224 226 199 198 203 199 186 179 179 178 193 194 238 172 170 181 200 220 224 168 202 327 247 304 271 226 242 236 244 249 257 263 262
249 237 232 235 238 226 229 226 227 244 245 193 190 218 204 181 197 199 191 168 182 196 193 229 209 168 150 202 185 219 193 169 164 66 244 19 280 251 273 220 211 239 239 245 258
234 228 224 219 219 220 225 223 219 229 239 179 168 201 190 190 174 199 193 199 178 164 158 206 167 179 205 201 183 217 154 182 156 185 11 216 297 259 207 273 235 249 243 255 261
234 235 213 218 224 224 221 220 202 217 226 169 153 170 170 185 191 154 189 198 188 121 220 167 186 183 197 158 179 142 88 68 138 160 246 220 200 263 216 197 215 221 249 262 285
244 227 212 217 219 213 204 191 210 221 154 179 177 170 181 187 210 188 176 203 172 157 203 188 222 214 157 128 138 159 140 146 207 207 233 156 179 250 274 111 182 205 240 276 218
236 226 214 216 215 211 204 215 220 210 195 238 171 187 186 176 194 186 185 193 220 199 170 196 215 190 188 179 173 190 184 163 193 207 203 143 226 239 208 231 251 248 267 235 179
203 213 217 214 214 213 222 222 227 175 170 173 181 191 198 194 170 175 195 195 194 189 172 195 227 216 180 168 159 190 210 175 81 53 82 215 285 295 198 223 223 224 210 182 161
239 208 216 208 213 208 228 224 271 163 190 206 205 193 189 195 186 191 197 196 194 195 176 194 162 192 177 161 214 171 162 189 216 204 227 244 258 239 209 240 231 190 186 167 147
220 205 211 208 207 204 203 212 161 336 116 218 223 232 206 180 190 187 194 195 196 194 198 162 139 278 146 205 187 163 193 205 175 202 201 233 244 203 227 227 209 192 175 154 140
183 185 167 191 173 177 186 175 200 163 129 303 280 237 192 198 192 194 200 195 193 191 195 189 140 162 202 309 210 208 201 190 194 203 232 224 255 250 274 219 192 165 148 141 142
175 166 184 191 209 151 272 149 234 183 149 158 281 219 198 188 204 207 202 221 195 193 194 176 197 158 136 80 279 211 220 207 213 73 197 205 237 103 81 123 146 137 145 148 148
158 150 221 193 209 143 148 168 258 256 103 165 294 306 138 174 212 187 210 202 190 199 198 177 188 213 212 212 133 196 209 210 209 225 232 224 242 223 190 168 141 144 152 155 154
178 212 185 205 195 99 140 185 183 218 218 188 232 221 278 125 142 193 219 155 180 200 193 192 210 207 232 184 174 196 201 210 208 221 216 235 223 244 189 185 167 163 159 160 158
169 160 170 125 158 171 179 209 199 198 176 218 207 208 207 145 203 155 135 171 154 206 191 197 218 181 233 249 212 210 208 204 212 223 226 243 233 246 167 167 165 168 168 169 168
197 174 171 183 98 147 210 191 209 154 249 222 198 205 231 237 192 147 140 178 269 183 197 193 198 192 221 210 218 233 217 209 211 221 213 217 232 140 190 176 177 174 177 174 171